Location: Presov
(49.0000°N, 21.2500°E)
Time: 17:53:18
(UTC+02:00)

Courier 1B - All Passes

Search period start: 11 April 2021 00:00
Search period end: 21 April 2021 00:00
Orbit: 963 x 1209 km, 28.3° (Epoch: 11 April)

Date Brightness Start Highest point End Pass type
(mag) Time Alt. Az. Time Alt. Az. Time Alt. Az.
11 Apr - 18:05:45 10° SSW 18:08:08 12° S 18:10:33 10° SSE daylight
11 Apr - 19:58:48 10° SSW 20:00:44 11° S 20:02:42 10° S visible
12 Apr - 17:13:14 10° S 17:14:44 11° S 17:16:13 10° SSE daylight
12 Apr - 19:05:01 10° SSW 19:07:18 12° S 19:09:37 10° SSE daylight
13 Apr - 18:11:33 10° SSW 18:13:52 12° S 18:16:13 10° SSE daylight
14 Apr - 17:18:21 10° SSW 17:20:28 12° S 17:22:36 10° SSE daylight
15 Apr - 16:25:30 10° S 16:27:04 11° S 16:28:39 10° SSE daylight
15 Apr - 18:18:42 10° SSW 18:19:37 10° S 18:20:32 10° S daylight
16 Apr - 17:24:39 10° SSW 17:26:13 11° S 17:27:49 10° S daylight
17 Apr - 16:31:06 10° SSW 16:32:50 11° S 16:34:34 10° SSE daylight
18 Apr - 15:37:52 10° SSW 15:39:27 11° S 15:41:04 10° SSE daylight
19 Apr - 14:45:02 10° S 14:46:05 10° S 14:47:08 10° SSE daylight
20 Apr - 15:44:00 10° SSW 15:45:13 11° S 15:46:26 10° S daylight
